Home   Weather   Tucson   Past weeks

Flag for USA Past Weather in Tucson, Arizona, USA — Yesterday and Last 2 Weeks

Now
92 °F

Clear.


Feels Like: 89 °F
Forecast: 76 / 93 °F
Wind: 13 mph from Northeast

Location: Davis-Monthan Air Force Base

Current Time: Aug 30, 2016 at 7:31:53 PM

Latest Report: Aug 30, 2016 at 6:58 PM


Visibility: 10 mi

Pressure: 29.74 "Hg (27.33 "Hg at 758m altitude)

Humidity: 23%

Dew Point: 49 °F

Location of TucsonLocation

Past Weather in Tucson — Graph

°F

Tucson Temperature Yesterday

Maximum temperature yesterday: 98 °F (at 4:58 PM)
Minimum temperature yesterday: 67 °F (at 5:58 AM)
Average temperature yesterday: 83 °F

High & Low Weather Summary for the Past Weeks

 TemperatureHumidityPressure
High101 °F (Aug 16, 4:58 PM)89% (Aug 21, 10:58 PM)30.01 "Hg (Aug 21, 10:58 PM)
Low63 °F (Aug 28, 5:58 AM)13% (Aug 27, 2:58 PM)29.72 "Hg (Aug 18, 4:58 PM)
Average83 °F38%29.85 "Hg
* Reported Aug 15 5:58 PM — Aug 30 5:58 PM, Tucson, Weather by CustomWeather, © 2016

Note: Actual official high and low records may vary slightly from our data, if they occured in-between our weather recording intervals... More about our weather records

Advertising

Tucson Weather History for the Previous 24 Hours

Scroll right to see more
 ConditionsComfort  
Time TempWeatherWind HumidityBarometerVisibility
5:58 PM
Tue, Aug 30
96 °FSunny.14 mph19%29.73 "Hg10 mi
4:58 PM95 °FBroken clouds.5 mph20%29.74 "Hg10 mi
3:58 PM98 °FScattered clouds.3 mph18%29.75 "Hg10 mi
2:58 PM99 °FSunny.2 mph19%29.76 "Hg10 mi
1:58 PM96 °FSunny.8 mph22%29.79 "Hg10 mi
12:58 PM97 °FSunny.3 mph24%29.83 "Hg10 mi
11:58 AM94 °FSunny.13 mph25%29.85 "Hg10 mi
10:58 AM93 °FSunny.15 mph28%29.88 "Hg10 mi
9:58 AM90 °FSunny.17 mph30%29.89 "Hg10 mi
8:58 AM88 °FSunny.17 mph34%29.88 "Hg10 mi
7:58 AM84 °FSunny.14 mph38%29.88 "Hg10 mi
6:58 AM82 °FSunny.12 mph39%29.86 "Hg10 mi
5:58 AM81 °FSunny.16 mph40%29.84 "Hg10 mi
4:58 AM80 °FClear.12 mph43%29.83 "Hg10 mi
3:58 AM82 °FClear.10 mph39%29.82 "Hg10 mi
2:58 AM83 °FClear.10 mph35%29.83 "Hg10 mi
1:58 AM79 °FClear.7 mph38%29.83 "Hg10 mi
12:58 AM79 °FClear.7 mph37%29.83 "Hg10 mi
11:58 PM
Mon, Aug 29
81 °FPassing clouds.8 mph32%29.83 "Hg10 mi
10:58 PM82 °FPassing clouds.9 mph28%29.83 "Hg10 mi
9:58 PM83 °FPassing clouds.5 mph25%29.82 "Hg10 mi
8:58 PM85 °FClear.8 mph22%29.80 "Hg10 mi
7:58 PM89 °FClear.9 mph20%29.78 "Hg10 mi
Weather by CustomWeather, © 2016

See weather overviewHow to use our weather pages